STARLINK-35011, 66082

Orbit data source: Space-Track

STARLINK-35011, 66082 is a payload satellite owned by SpaceX/Seattle (US) in LEO that was launched on Sun, 19 Oct 2025 UTC via an FALCON 9 launch vehicle from the Air Force Eastern Test Range (AFETR). Payload-class satellites include a variety of spacecraft equipped with specific instruments for various scientific and technological missions. These include communications satellites like Starlink; space stations such as the ISS; scientific satellites like the Hubble; Earth observation satellites from companies like Planet Labs, Umbra, and HawkEye 360; GPS; miniature CubeSats for education and research; and military/defense satellites.

Loading next visibility...
Identifier
66082, 2025-235AA
Orbit
LEO
Country
Flag of USUS
Related business
Manufacturer
SpaceX/Seattle
Mission
Operational Commercial Communications
Bus & Motor
STARLINK V2MO, Unknown motor
Mass
575 kg wet, ~530 kg dry
Launch date (UTC)
2025-10-19 (8 months ago)
Launch vehicle
FALCON 9
Launch site
Air Force Eastern Test Range (AFETR)
Object type
Payload
Rocket body
Debris
Shape & HBR
Box + 2 Pan, 17.7 m
Radar Cross Section
36.964 m², Large (>1 m²)

Expand to show TLE details & history
Last TLE update: 16 hours ago

TLE from 16 hours ago
0 STARLINK-35011
1 66082U 25235AA  26171.17857558  .00014522  00000-0  47848-3 0  9990
2 66082  53.1579 128.4579 0001416  97.7389 262.3773 15.31722294 38620
Epoch: 2026-06-20T04:17Z
TLE epoch observation values (Epoch: 2026-06-20T04:17:08.930Z)
Latitude
-0.00002°
Longitude
155.77375°
Altitude
471.702 km
Speed
7.631 km/s
True Right ascension
08h 33m 49s
True Declination
0° 00' 00"
Sunlit
Object was in daylight at epoch
Visualization orbit readout
Latitude
Unknown
Longitude
Unknown
Altitude
Unknown
Speed
Unknown
Apparent Right ascension
Unknown
Apparent Declination
Unknown
Sunlit
N/A
Visualization observer readout
Local Sidereal Time
07:18:38
Azimuth
Unknown
Elevation
Unknown
Doppler factor
Unknown
Orbital elements
Apogee altitude
471.9 km
Perigee altitude
469.961 km
Semi-major axis
6,849.067 km
Eccentricity
0.00014
Inclination
53.1579°
RAAN
128.4579°
Arg. of periapsis
97.7389°
True anomaly
262.36122°
Mean anomaly
262.3773°
Eccentric anomaly
262.36926°
Mean motion
3.82909 °/min
Orbital period
94.02 mins
BSTAR
0.00047848
Loading maneuver chart data...
Computing Atmospheric mass density...
Loading historical data...
Loading historical data...
Loading historical data...
Loading historical data...
Loading historical data...
Loading historical data...
Loading historical data...

Documentation

Showing up to 5 results
|